Location: Caltech
(34.1382°N, 118.1253°W)
Time: 21:43:15
(UTC-07:00)

AO-Echo - Visible Passes

Search period start: 18 April 2014 00:00
Search period end: 28 April 2014 00:00
Orbit: 694 x 813 km, 98.2° (Epoch: 18 April)

Date Brightness Start Highest point End Pass type
(mag) Time Alt. Az. Time Alt. Az. Time Alt. Az.
18 Apr ? 02:25:59 10° NE 02:27:03 15° NE 02:27:03 15° NE visible
18 Apr ? 04:04:43 10° NNW 04:07:02 21° NW 04:07:02 21° NW visible
19 Apr ? 03:24:04 10° N 03:26:36 31° N 03:26:36 31° N visible
20 Apr ? 02:44:16 10° NNE 02:46:11 22° NE 02:46:11 22° NE visible
20 Apr ? 04:24:12 10° NNW 04:26:09 16° NW 04:26:09 16° NW visible
21 Apr ? 03:42:58 10° N 03:45:43 30° NNW 03:45:43 30° NNW visible
22 Apr ? 03:02:46 10° NNE 03:05:18 31° NNE 03:05:18 31° NNE visible
22 Apr ? 04:45:02 10° NW 04:45:16 10° WNW 04:45:16 10° WNW visible
23 Apr ? 02:23:30 10° NE 02:24:52 16° NE 02:24:52 16° NE visible
23 Apr ? 04:02:05 10° NNW 04:04:50 24° NW 04:04:50 24° NW visible
24 Apr ? 03:21:29 10° N 03:24:24 38° N 03:24:24 38° N visible
25 Apr ? 02:41:43 10° NNE 02:43:59 25° NE 02:43:59 25° NE visible
25 Apr ? 04:21:31 10° NNW 04:23:57 17° WNW 04:23:57 17° WNW visible
26 Apr ? 02:03:21 10° ENE 02:03:33 11° ENE 02:03:33 11° ENE visible
26 Apr ? 03:40:21 10° N 03:43:31 35° NNW 03:43:31 35° NNW visible
27 Apr ? 03:00:11 10° NNE 03:03:05 36° NNE 03:03:05 36° NNE visible
27 Apr ? 04:41:55 10° NW 04:43:03 11° WNW 04:43:03 11° WNW visible
